Zurück zum Katalog

PERSEUS M2

AktivMilitärSSO
NORAD 40037·PAYLOAD·🇷🇺 Russia

Gestartet Jun 19, 2014 von Dombarovsky

Loading…

Nächste Überflüge (nächste 24 Stunden)

TLE

AktuellSource: Space-Track

Epoche: Sep 14, 2026, 13:53 UTC

1 40037U 14033AD  26257.57914350  .00000768  00000-0  74375-4 0  9992
2 40037  98.0057 209.9906 0012407  10.9334 349.2154 14.95736563664142

Verfolge PERSEUS M2 in Echtzeit mit AllMySat

Download on the App Store